Orbital elements:
2008 TC3                                                 Earth MOID = 0.0000 AU
Epoch 2008 Oct. 6.0 TT = JDT 2454745.5                  MPC
M 328.47798              (2000.0)            P               Q
n   0.68818758     Peri.  233.95124     +0.37341132     -0.92761286
a   1.2705687      Node   194.13267     +0.86364717     +0.35152506
e   0.2852224      Incl.    2.32802     +0.33864073     +0.12635077
P   1.43           H   30.4           G   0.15           U   5
Residuals in seconds of arc
081006 G96  0.4+  0.1-    081006 046  0.4+  0.3+    081006 A77  1.4+  0.3+
081006 G96  0.0-  0.2-    081006 046  0.2+  0.2+    081006 213  0.4-  0.1-
081006 G96  0.4-  0.5-    081006 J75  0.7+  0.4+    081006 A77  1.4+  0.6+
081006 G96  0.0+  0.2-    081006 046  0.4+  0.1+    081006 A77  0.7+  0.3+
081006 G96  0.0+  0.2-    081006 046  0.2-  0.0+    081006 J47  0.0-  0.3+
081006 G96  0.1-  0.2-    081006 046  0.1-  0.4+    081006 J47  0.3-  0.0+
081006 854  1.0-  0.9+    081006 473  0.1+  0.0+    081006 A77  0.8+  0.3+
081006 G96  0.0-  0.2-    081006 213  0.5-  0.5+    081006 J51  0.8-  0.4-
081006 854  0.0-  0.3-    081006 620  0.3+  0.1+    081006 A77  0.2-  0.2+
081006 854  0.2-  1.0+    081006 213  0.4-  0.5+    081006 J51  0.0-  0.0-
081006 G96  0.1-  0.1-    081006 J75  1.1+  0.4+    081006 J47  0.1-  0.3+
081006 G96  0.2+  0.1-    081006 473  0.2-  0.0+    081006 J51  0.3+  0.1-
081006 G96  0.4+  0.2-    081006 046  0.6+  0.4-    081006 J47  0.1-  0.0+
081006 G96  0.3+  0.2-    081006 046  0.3+  0.1-    081006 J47  0.1+  0.5+
081006 G96  0.4+  0.2-    081006 620  0.8+  0.0+    081006 J47  0.1+  0.1+
081006 D90  0.0+  0.3-    081006 046  0.3+  0.0+    081006 213  0.5-  0.1-
081006 D90  0.0-  0.1+    081006 J75  0.3+  0.3+    081006 J47  0.5+  0.0-
081006 D90  0.8-  0.6+    081006 046  0.9+  0.4-    081006 J95  0.4-  0.5-
081006 E12  0.1-  0.5-    081006 473  0.1-  0.2-    081006 J47  0.5-  0.1-
081006 E12  0.0-  0.3-    081006 213  0.1-  0.2-    081006 213  0.4-  0.1-
081006 E12  0.0-  0.2-    081006 620  0.8+  0.0+    081006 J47  0.0-  0.0-
081006 E12  0.4+  0.5+    081006 143  0.6+  0.2-    081006 J47  0.0-  0.1+
081006 E12  1.0+  0.0-    081006 J75  0.9+  0.2+    081006 213  0.2-  0.0-
081006 E12  0.1-  0.7-    081006 620  0.2-  0.1-    081006 J75  0.8+  0.0-
081006 E12  0.7-  0.5-    081006 213  0.1-  0.1-    081006 J95  0.5-  0.2-
081006 E12  0.1+  0.6-    081006 198  0.1+  0.1+    081006 J47  0.4+  0.5+
081006 114  0.5+  0.4+    081006 198  0.1+  0.1+    081006 952  0.3+  1.3-
081006 114  0.0+  0.2+    081006 198  0.8-  0.0+    081006 213  0.5-  0.4-
081006 114  0.2+  0.8+    081006 143  0.4+  0.1-    081006 J47  0.3-  0.3+
081006 114  0.6+  0.7+    081006 213  0.2+  0.1-    081006 J47  0.1+  0.3+
081006 114  0.8-  0.4+    081006 198  0.7+  0.0-    081006 J95  0.5-  0.3-
081006 114  0.5+  0.4+    081006 620  0.0+  0.1+    081006 952  0.0-  1.3-
081006 114  0.6+  0.6+    081006 213  0.4-  0.9-    081006 473  0.3-  0.2-
081006 114  0.5+  0.3+    081006 J75  0.5+  0.2+    081006 952  0.4+  0.8-
081006 114  0.7+  0.5+    081006 143  0.2+  0.0-    081006 A77  0.5+  0.5+
081006 106  0.0+  0.6-    081006 213  0.0-  0.0+    081006 A77  0.1+  0.2+
081006 106  1.7-  0.1+    081006 213  0.1-  0.4-    081006 143  0.0+  0.5-
081006 114  0.3+  0.8+    081006 J47  0.2-  0.3+    081006 A77  0.9+  0.4+
081006 106  1.7-  1.3-    081006 620  0.2-  0.0+    081006 J95  0.5-  0.3-
081006 114  0.3+  0.4+    081006 J47  0.1-  0.3+    081006 473  0.1-  0.1-
081006 114  0.5+  0.3+    081006 235  1.0+  0.1+    081006 A77  0.4-  0.2+
081006 114  0.7+  0.4+    081006 J75  0.0+  0.1+    081006 A77  0.2+  0.3+
081006 114  0.0+  0.2+    081006 J47  0.1+  0.5+    081006 A77  0.2-  0.4+
081006 143  0.4-  0.1-    081006 213  0.0+  0.1+    081006 143  0.1+  0.5-
081006 143  0.1+  0.2-    081006 J47  0.2+  0.6+    081006 213  0.6-  0.7-
081006 143  0.2+  0.3-    081006 143  0.3+  0.2-    081006 A77  0.4-  0.3+
081006 143  0.2-  0.2-    081006 J47  0.2-  0.3+    081006 A77  0.6-  0.3+
081006 595  0.3-  0.3+    081006 J47  0.1+  0.3+    081006 473  0.1+  0.2-
081006 143  0.0-  0.2-    081006 J47  0.2+  0.0+    081006 A77  0.8+  0.3+
081006 620  0.0+  0.3+    081006 143  0.3+  0.3-    081006 A77  0.3-  0.5+
081006 A77 (4.6-  0.6+)   081006 J47  0.3+  0.2+    081006 A77  0.0+  0.3+
081006 A77  2.2-  0.2-    081006 235  1.2+  0.2-    081006 143  0.2+  0.3-
081006 595  0.1+  0.8+    081006 J47  0.7-  0.1-    081006 A77  0.2-  0.5+
081006 595  0.3-  0.5+    081006 J47  0.0-  0.0+    081006 A77  0.8-  0.2+
081006 143  0.0-  0.1-    081006 J47  0.2+  0.0-    081006 J75  0.4+  0.1+
081006 A77  2.1-  0.3-    081006 143  0.1+  0.1-    081006 J75  0.1-  0.1-
081006 620  0.1+  0.0-    081006 J75  0.1+  0.2+    081006 473  0.2-  0.4-
081006 620  0.6+  0.1-    081006 J47  0.0+  0.1+    081006 213  0.7-  0.2-
081006 620  0.9-  0.2-    081006 J47  0.1+  0.3+    081006 J47  0.2-  0.1+
081006 143  0.1+  0.1-    081006 204  0.3-  0.4-    081006 A86  1.8+  0.5+
081006 J95  0.2-  0.1-    081006 J47  0.3+  0.3+    081006 A86  1.6+  0.2+
081006 J95  0.2-  0.3-    081006 204  0.1-  0.7-    081006 J47  0.4-  0.2+
081006 J95  0.1+  0.1-    081006 204  0.3-  0.5-    081006 213  1.0-  0.2-
081006 143  0.1+  0.2-    081006 J47  0.1+  0.1-    081006 J47  0.1+  0.1-
081006 J95  0.1-  0.4-    081006 J47  0.4+  0.1+    081006 J47  0.1+  0.1+
081006 204  0.2-  0.3-    081006 204  0.2-  0.3-    081006 J47  0.1+  0.2+
081006 J95  0.3+  0.0-    081006 J47  0.0-  0.2-    081006 473  0.1+  0.3-
081006 204  0.1-  0.3-    081006 204  0.6-  0.2-    081006 J47  0.2+  0.2+
081006 204  0.1+  0.2-    081006 J75  0.0+  0.2+    081006 952  0.5-  0.3-
081006 204  0.1+  0.2-    081006 J47  0.1-  0.1+    081006 143  0.2+  0.1+
081006 204  0.0-  0.0-    081006 J47  0.1-  0.2+    081006 J47  0.2-  0.1+
081006 204  0.3-  0.3-    081006 J47  0.1-  0.3+    081006 952  0.1-  0.3+
081006 620  0.4-  0.1-    081006 J47  0.0+  0.2+    081006 J47  0.3-  0.0-
081006 143  0.0+  0.2-    081006 J53  0.0+  0.1-    081006 213  0.3-  0.1+
081006 620  0.4+  0.1-    081006 A77  0.9-  0.1+    081006 J47  0.1-  0.1+
081006 204  0.2-  0.2-    081006 J47  0.1+  0.2+    081006 213  0.5-  0.4-
081006 204  0.2-  0.2-    081006 A77  1.4-  0.1-    081006 J47  0.0-  0.1+
081006 204  0.5-  0.0-    081006 A77  0.5-  0.0+    081006 473  0.2+  0.2-
081006 204  0.2-  0.2-    081006 A77  0.2-  0.3+    081006 143  0.4+  0.1-
081006 204  0.4-  0.0-    081006 A77  0.9+  0.1+    081006 952  0.9-  0.1-
081006 620  0.4+  0.0-    081006 J47  0.1+  0.0+    081006 J47  0.3-  0.1+
081006 143  0.0+  0.2-    081006 A77  2.1+  0.2+    081006 213  0.3-  0.2-
081006 473  0.2-  0.5+    081006 A77  1.7+  0.7+    081006 J47  0.2-  0.1-
081006 046 (4.1+  1.4+)   081006 J47  0.2-  0.0+    081006 J47  0.2-  0.1-
081006 046  0.2-  0.3+    081006 A77  0.4+  0.3+    081006 J47  0.2+  0.0+
081006 046  0.2+  0.4-    081006 213  0.6-  0.2-    081006 213  0.2-  0.3-
081006 046  0.1+  0.0+    081006 J53  0.3-  0.1-    081006 213  0.1-  0.7-
081006 046  0.3+  0.1-    081006 A77  0.2-  0.2+    081006 J47  0.6+  0.3+
081006 620  0.1+  0.0+    081006 J53  0.0+  0.1+    081006 473  0.3+  0.4-
081006 473  0.2-  0.1+    081006 J47  0.1-  0.2+    081006 J47  0.1-  0.1+
081006 J75  0.2-  0.1+    081006 A77  1.7-  0.0-    081006 J47  0.0-  0.1+
081006 620  0.2+  0.1-    081006 A77  1.0-  0.0+    081006 J47  0.3+  0.1+
081006 046  0.3-  0.3-    081006 A77  1.0-  0.1+    081006 J47  0.0-  0.0-
081006 046  0.4+  0.7-    081006 213  0.4-  0.3-    081006 143  0.4-  0.1-
081006 143  0.2+  0.2-    081006 A77  0.0-  0.1+    081006 143  0.0+  0.0-

